Simultaneous Nadir Overpasses (SNOs) Predictions

Prediction of SNOs between NOAA-20 and METOP-C Satellite Orbit:

Table of predicted SNOs for the next 14.0 days since TLE Epoch: 10/25/2019
Index Date (NOAA-20) Time (NOAA-20) Lat,Lon (NOAA-20) SZA (NOAA-20 ) Date (METOP-C) Time (METOP-C) Lat,Lon (METOP-C) SZA (METOP-C ) Distance(km) Time Diff (sec)
1 10/26/2019 20:49:28 73.51,-142.27 86.06 10/26/2019 20:50:33 73.45,-139.20 85.94 97.36 65
2 10/26/2019 21:40:10 -73.41, 25.27 94.04 10/26/2019 21:41:17 -73.36, 27.93 94.14 84.55 67
3 10/26/2019 22:30:51 73.16,-166.87 85.72 10/26/2019 22:32:01 73.12,-165.26 85.64 52.18 70
4 10/26/2019 23:21:34 -73.11, 0.56 94.33 10/26/2019 23:22:45 -73.04, 1.88 94.43 43.67 71
5 10/27/2019 00:12:15 72.86, 168.40 85.43 10/27/2019 00:13:28 72.85, 168.82 85.40 13.89 73
6 10/27/2019 01:02:58 -72.81, -24.18 94.61 10/27/2019 01:04:12 -72.76, -24.04 94.67 7.43 74
7 10/27/2019 01:53:43 72.76, 143.23 85.35 10/27/2019 01:54:51 72.78, 143.33 85.36 3.59 68
8 10/27/2019 02:44:27 -72.77, -49.46 94.64 10/27/2019 02:45:34 -72.74, -49.42 94.67 3.25 67
9 10/27/2019 03:35:13 72.77, 117.84 85.38 10/27/2019 03:36:13 72.75, 117.94 85.36 3.71 60
10 10/27/2019 04:25:56 -72.72, -74.74 94.66 10/27/2019 04:26:56 -72.72, -74.81 94.67 2.23 60
11 10/27/2019 05:16:42 72.72, 92.56 85.36 10/27/2019 05:17:35 72.73, 92.56 85.36 1.03 53
12 10/27/2019 06:07:26 -72.73,-100.12 94.63 10/27/2019 06:08:17 -72.75,-100.09 94.62 2.67 51
13 10/27/2019 06:58:12 72.73, 67.18 85.39 10/27/2019 06:58:57 72.71, 67.17 85.36 1.95 45
14 10/27/2019 07:48:56 -72.73,-125.51 94.61 10/27/2019 07:49:39 -72.72,-125.47 94.62 1.26 43
15 10/27/2019 08:39:42 72.73, 41.80 85.41 10/27/2019 08:40:18 72.74, 41.89 85.42 3.25 36
16 10/27/2019 09:30:25 -72.68,-150.79 94.63 10/27/2019 09:31:01 -72.70,-150.86 94.61 3.19 36
17 10/27/2019 10:21:11 72.69, 16.52 85.39 10/27/2019 10:21:40 72.72, 16.51 85.42 3.49 29
18 10/27/2019 11:11:55 -72.69,-176.17 94.60 10/27/2019 11:12:23 -72.68,-176.24 94.61 2.55 28
19 10/27/2019 12:02:41 72.69, -8.87 85.42 10/27/2019 12:03:02 72.70, -8.88 85.42 0.65 21
20 10/27/2019 12:53:25 -72.69, 158.45 94.57 10/27/2019 12:53:44 -72.71, 158.48 94.56 2.12 19
21 10/27/2019 13:44:11 72.69, -34.25 85.45 10/27/2019 13:44:24 72.67, -34.26 85.42 2.47 13
22 10/27/2019 14:34:55 -72.70, 133.06 94.54 10/27/2019 14:35:06 -72.69, 133.09 94.56 1.41 11
23 10/27/2019 15:25:41 72.70, -59.63 85.48 10/27/2019 15:25:45 72.70, -59.54 85.48 2.99 4
24 10/27/2019 16:16:24 -72.65, 107.78 94.57 10/27/2019 16:16:28 -72.67, 107.71 94.55 3.03 4
25 10/27/2019 17:07:10 72.65, -84.91 85.45 10/27/2019 17:07:07 72.68, -84.93 85.48 3.03 3
26 10/27/2019 17:57:54 -72.66, 82.40 94.54 10/27/2019 17:57:50 -72.64, 82.32 94.55 2.92 4
27 10/27/2019 18:48:40 72.66,-110.30 85.48 10/27/2019 18:48:29 72.66,-110.31 85.48 0.56 11
28 10/27/2019 19:39:24 -72.66, 57.02 94.51 10/27/2019 19:39:11 -72.67, 57.04 94.50 1.59 13
29 10/27/2019 20:30:10 72.66,-135.68 85.51 10/27/2019 20:29:51 72.64,-135.70 85.48 2.98 19
30 10/27/2019 21:20:54 -72.66, 31.63 94.48 10/27/2019 21:20:33 -72.65, 31.65 94.50 1.75 21
31 10/27/2019 22:11:40 72.67,-161.06 85.54 10/27/2019 22:11:12 72.66,-160.98 85.53 2.83 28
32 10/27/2019 23:02:23 -72.62, 6.35 94.51 10/27/2019 23:01:55 -72.63, 6.27 94.49 2.95 28
33 10/27/2019 23:53:09 72.62, 173.66 85.51 10/27/2019 23:52:34 72.64, 173.64 85.54 2.58 35
34 10/28/2019 00:43:53 -72.62, -19.03 94.48 10/28/2019 00:43:17 -72.61, -19.11 94.49 3.32 36
35 10/28/2019 01:34:39 72.62, 148.27 85.54 10/28/2019 01:33:56 72.62, 148.25 85.54 0.84 43
36 10/28/2019 02:25:23 -72.63, -44.42 94.45 10/28/2019 02:24:38 -72.63, -44.40 94.44 1.06 45
37 10/28/2019 03:16:09 72.63, 122.89 85.57 10/28/2019 03:15:18 72.60, 122.87 85.54 3.50 51
38 10/28/2019 04:06:53 -72.63, -69.80 94.42 10/28/2019 04:06:00 -72.61, -69.78 94.44 2.17 53
39 10/28/2019 04:57:39 72.63, 97.50 85.60 10/28/2019 04:56:39 72.63, 97.59 85.59 2.77 60
40 10/28/2019 05:48:22 -72.58, -95.08 94.45 10/28/2019 05:47:22 -72.59, -95.17 94.44 2.94 60
41 10/28/2019 06:39:08 72.59, 72.23 85.57 10/28/2019 06:38:01 72.61, 72.20 85.60 2.15 67
42 10/28/2019 07:29:52 -72.59,-120.46 94.42 10/28/2019 07:28:43 -72.62,-120.45 94.39 3.33 69
43 10/28/2019 08:20:38 72.59, 46.84 85.60 10/28/2019 08:19:23 72.58, 46.82 85.60 1.27 75
44 10/28/2019 09:11:21 -72.54,-145.74 94.44 10/28/2019 09:10:06 -72.55,-145.93 94.43 6.39 75
45 10/28/2019 10:02:02 72.29, 22.07 85.31 10/28/2019 10:00:50 72.31, 20.92 85.36 38.76 72
46 10/28/2019 10:52:45 -72.24,-170.52 94.73 10/28/2019 10:51:34 -72.22,-171.92 94.72 47.65 71
47 10/28/2019 11:43:26 71.99, -2.72 85.02 10/28/2019 11:42:18 71.97, -5.05 85.06 80.08 68
48 10/28/2019 12:34:09 -71.94, 164.68 95.02 10/28/2019 12:33:01 -71.94, 162.21 94.96 85.35 68




NCC Satellite Simultaneous Nadir Overpasses (SNOs) Prediction Service
